Location: Tucson
(32.2217°N, 110.9265°W)
Time: 16:27:27
(UTC-07:00)

NOAA 19 - Visible Passes

Search period start: 06 December 2021 00:00
Search period end: 16 December 2021 00:00
Orbit: 840 x 861 km, 99.2° (Epoch: 06 December)

Date Brightness Start Highest point End Pass type
(mag) Time Alt. Az. Time Alt. Az. Time Alt. Az.
06 Dec 8.4 06:38:07 10° ENE 06:40:25 13° E 06:42:42 10° ESE visible
06 Dec 6.5 17:59:27 10° ESE 18:02:43 16° ENE 18:05:59 10° NNE visible
06 Dec 5.8 19:37:33 10° S 19:42:51 54° W 19:48:12 10° NNW visible
07 Dec 6.8 17:48:55 10° E 17:51:04 12° ENE 17:53:14 10° NE visible
07 Dec 5.3 19:25:37 10° S 19:31:02 71° WSW 19:36:30 10° NNW visible
08 Dec 5.1 19:13:47 10° SSE 19:19:14 88° ENE 19:24:43 10° NNW visible
09 Dec 5.0 19:02:03 10° SSE 19:07:27 68° ENE 19:12:52 10° N visible
09 Dec 8.1 20:46:40 10° WSW 20:48:28 12° W 20:50:17 10° WNW visible
10 Dec 5.3 18:50:26 10° SSE 18:55:40 51° ENE 19:00:58 10° N visible
10 Dec 7.8 20:33:19 10° SW 20:36:33 16° W 20:39:47 10° WNW visible
11 Dec 5.5 18:38:55 10° SE 18:43:56 39° ENE 18:48:59 10° N visible
11 Dec 7.4 20:20:36 10° SW 20:24:38 21° W 20:28:42 10° NW visible
12 Dec 5.9 18:27:31 10° SE 18:32:13 30° ENE 18:36:55 10° N visible
12 Dec 7.0 20:08:10 10° SSW 20:12:45 28° W 20:17:23 10° NW visible
13 Dec 6.2 18:16:17 10° ESE 18:20:31 24° ENE 18:24:46 10° NNE visible
13 Dec 6.6 19:55:55 10° SSW 20:00:53 36° W 20:05:54 10° NNW visible
14 Dec 8.2 06:43:44 10° ENE 06:46:40 14° E 06:49:34 10° SE visible
14 Dec 6.4 18:05:13 10° ESE 18:08:49 18° ENE 18:12:27 10° NNE visible
14 Dec 6.0 19:43:48 10° S 19:49:01 48° W 19:54:18 10° NNW visible
15 Dec 8.7 06:33:53 10° E 06:34:44 10° E 06:35:34 10° E visible
15 Dec 6.7 17:54:27 10° E 17:57:10 14° ENE 17:59:54 10° NNE visible
15 Dec 5.5 19:31:49 10° S 19:37:12 63° WSW 19:42:38 10° NNW visible
